{"data":{"norad_id":63827,"epoch":"2026-09-20T02:33:13.508640Z","epoch_age_seconds":183902,"freshness":"STALE","line1":"1 63827U 25092Z   26263.10640635  .00010216  00000+0  38015-3 0  9997","line2":"2 63827  43.0008 154.9649 0001843 258.7818 101.2827 15.27589171 78288","mean_motion":15.27589171,"eccentricity":0.0001843,"inclination_deg":43.0008,"raan_deg":154.9649,"arg_perigee_deg":258.7818,"mean_anomaly_deg":101.2827,"bstar":0.00038015,"rev_number":7828,"period_min":94.266182775919,"perigee_km":481.75712336738,"apogee_km":484.2861464402,"semimajor_km":6861.1586349038,"source":"CELESTRAK","updated_at":"2026-09-21T09:00:35.108893Z"}}